Time,TemperatureF,DewpointF,PressureIn,WindDirection,WindDirectionDegrees,WindSpeedMPH,WindSpeedGustMPH,Humidity,HourlyPrecipIn,Conditions,Clouds,dailyrainin,SolarRadiationWatts/m^2,SoftwareType,DateUTC
2013-03-01 00:00:00,30.3,24.3,30.07,NW,319,2.0,5.0,78,0.00,,---,0.00,0.00,VWS V14.01,2013-03-01 06:00:00,
2013-03-01 00:03:00,31.2,24.5,30.07,North,0,6.0,7.0,76,0.00,,---,0.00,0.00,VWS V14.01,2013-03-01 06:03:00,
2013-03-01 00:05:00,31.2,24.5,30.07,North,359,3.0,7.0,76,0.00,,---,0.00,0.00,VWS V14.01,2013-03-01 06:05:00,
2013-03-01 00:08:00,31.0,24.6,30.07,North,357,6.0,6.0,77,0.00,,---,0.00,0.00,VWS V14.01,2013-03-01 06:08:00,
2013-03-01 00:10:00,31.0,24.6,30.07,North,354,3.0,6.0,77,0.00,,---,0.00,0.00,VWS V14.01,2013-03-01 06:10:00,
2013-03-01 00:13:00,31.0,24.6,30.07,NW,316,5.0,6.0,77,0.00,,---,0.00,0.00,VWS V14.01,2013-03-01 06:13:00,
2013-03-01 00:15:00,31.0,24.6,30.07,NW,320,1.0,6.0,77,0.00,,---,0.00,0.00,VWS V14.01,2013-03-01 06:15:00,
2013-03-01 00:18:00,30.9,24.5,30.07,NNW,340,3.0,6.0,77,0.00,,---,0.00,0.00,VWS V14.01,2013-03-01 06:18:00,
2013-03-01 00:20:00,30.9,24.5,30.07,NW,319,4.0,6.0,77,0.00,,---,0.00,0.00,VWS V14.01,2013-03-01 06:20:00,
2013-03-01 00:23:00,30.9,24.5,30.07,North,0,2.0,6.0,77,0.00,,---,0.00,0.00,VWS V14.01,2013-03-01 06:23:00,
2013-03-01 00:25:00,30.9,24.5,30.07,North,0,3.0,6.0,77,0.00,,---,0.00,0.00,VWS V14.01,2013-03-01 06:25:00,
2013-03-01 00:28:00,30.9,24.5,30.07,North,0,2.0,6.0,77,0.00,,---,0.00,0.00,VWS V14.01,2013-03-01 06:28:00,
2013-03-01 00:30:00,30.9,24.5,30.07,North,0,6.0,6.0,77,0.00,,---,0.00,0.00,VWS V14.01,2013-03-01 06:30:00,
2013-03-01 00:33:00,30.7,24.4,30.07,North,0,3.0,6.0,77,0.00,,---,0.00,0.00,VWS V14.01,2013-03-01 06:33:00,
2013-03-01 00:35:00,30.7,24.4,30.07,North,359,5.0,6.0,77,0.00,,---,0.00,0.00,VWS V14.01,2013-03-01 06:35:00,
2013-03-01 00:39:00,30.7,24.7,30.07,North,0,2.0,6.0,78,0.00,,---,0.00,0.00,VWS V14.01,2013-03-01 06:39:00,
2013-03-01 00:40:00,30.7,24.7,30.07,North,0,4.0,6.0,78,0.00,,---,0.00,0.00,VWS V14.01,2013-03-01 06:40:00,
2013-03-01 00:44:00,30.6,24.6,30.07,North,0,2.0,5.0,78,0.00,,---,0.00,0.00,VWS V14.01,2013-03-01 06:44:00,
2013-03-01 00:45:00,30.6,24.6,30.07,North,0,2.0,5.0,78,0.00,,---,0.00,0.00,VWS V14.01,2013-03-01 06:45:00,
2013-03-01 00:49:00,30.6,24.6,30.07,NNW,335,2.0,5.0,78,0.00,,---,0.00,0.00,VWS V14.01,2013-03-01 06:49:00,
2013-03-01 00:50:00,30.6,24.6,30.07,NNW,335,2.0,5.0,78,0.00,,---,0.00,0.00,VWS V14.01,2013-03-01 06:50:00,
2013-03-01 00:54:00,30.4,24.4,30.07,North,0,3.0,3.0,78,0.00,,---,0.00,0.00,VWS V14.01,2013-03-01 06:54:00,
2013-03-01 00:55:00,30.4,24.4,30.07,North,0,3.0,6.0,78,0.00,,---,0.00,0.00,VWS V14.01,2013-03-01 06:55:00,
2013-03-01 00:59:00,30.3,24.3,30.07,North,353,3.0,3.0,78,0.00,,---,0.00,0.00,VWS V14.01,2013-03-01 06:59:00,
2013-03-01 01:00:00,30.3,24.3,30.07,NW,319,2.0,5.0,78,0.00,,---,0.00,0.00,VWS V14.01,2013-03-01 07:00:00,
2013-03-01 01:04:00,30.3,24.6,30.07,North,0,4.0,5.0,79,0.00,,---,0.00,0.00,VWS V14.01,2013-03-01 07:04:00,
2013-03-01 01:05:00,30.3,24.6,30.07,NNW,343,3.0,6.0,79,0.00,,---,0.00,0.00,VWS V14.01,2013-03-01 07:05:00,
2013-03-01 01:09:00,30.1,24.4,30.07,North,0,4.0,5.0,79,0.00,,---,0.00,0.00,VWS V14.01,2013-03-01 07:09:00,
2013-03-01 01:10:00,30.1,24.4,30.07,NNW,340,5.0,6.0,79,0.00,,---,0.00,0.00,VWS V14.01,2013-03-01 07:10:00,
2013-03-01 01:15:00,30.1,24.4,30.07,North,0,3.0,3.0,79,0.00,,---,0.00,0.00,VWS V14.01,2013-03-01 07:15:00,
2013-03-01 01:20:00,30.1,24.4,30.07,NNW,347,5.0,5.0,79,0.00,,---,0.00,0.00,VWS V14.01,2013-03-01 07:20:00,
2013-03-01 01:25:00,30.1,24.4,30.07,NNW,344,3.0,5.0,79,0.00,,---,0.00,0.00,VWS V14.01,2013-03-01 07:25:00,
2013-03-01 01:30:00,30.1,24.4,30.08,North,359,5.0,7.0,79,0.00,,---,0.00,0.00,VWS V14.01,2013-03-01 07:30:00,
2013-03-01 01:35:00,30.1,24.4,30.08,NNW,337,5.0,6.0,79,0.00,,---,0.00,0.00,VWS V14.01,2013-03-01 07:35:00,
2013-03-01 01:40:00,30.1,24.4,30.08,NW,323,6.0,6.0,79,0.00,,---,0.00,0.00,VWS V14.01,2013-03-01 07:40:00,
2013-03-01 01:45:00,30.1,24.4,30.08,North,0,5.0,6.0,79,0.00,,---,0.00,0.00,VWS V14.01,2013-03-01 07:45:00,
2013-03-01 01:50:00,30.1,24.4,30.08,North,357,5.0,7.0,79,0.00,,---,0.00,0.00,VWS V14.01,2013-03-01 07:50:00,
2013-03-01 01:55:00,30.1,24.4,30.08,NNW,343,5.0,8.0,79,0.00,,---,0.00,0.00,VWS V14.01,2013-03-01 07:55:00,
2013-03-01 02:00:00,30.1,24.7,30.08,NW,309,4.0,7.0,80,0.00,,---,0.00,0.00,VWS V14.01,2013-03-01 08:00:00,
2013-03-01 02:05:00,30.1,24.7,30.08,North,354,6.0,7.0,80,0.00,,---,0.00,0.00,VWS V14.01,2013-03-01 08:05:00,
2013-03-01 02:06:00,30.1,24.7,30.08,NNW,343,5.0,9.0,80,0.00,,---,0.00,0.00,VWS V14.01,2013-03-01 08:06:00,
2013-03-01 02:10:00,30.3,24.9,30.08,NNW,332,7.0,9.0,80,0.00,,---,0.00,0.00,VWS V14.01,2013-03-01 08:10:00,
2013-03-01 02:11:00,30.3,24.9,30.08,North,0,5.0,8.0,80,0.00,,---,0.00,0.00,VWS V14.01,2013-03-01 08:11:00,
2013-03-01 02:15:00,30.3,24.9,30.07,North,0,6.0,9.0,80,0.00,,---,0.00,0.00,VWS V14.01,2013-03-01 08:15:00,
2013-03-01 02:16:00,30.3,24.9,30.07,NW,315,5.0,7.0,80,0.00,,---,0.00,0.00,VWS V14.01,2013-03-01 08:16:00,
2013-03-01 02:20:00,30.3,24.9,30.07,North,0,5.0,7.0,80,0.00,,---,0.00,0.00,VWS V14.01,2013-03-01 08:20:00,
2013-03-01 02:21:00,30.3,24.9,30.07,NW,312,4.0,8.0,80,0.00,,---,0.00,0.00,VWS V14.01,2013-03-01 08:21:00,
2013-03-01 02:25:00,30.3,24.9,30.07,North,359,5.0,8.0,80,0.00,,---,0.00,0.00,VWS V14.01,2013-03-01 08:25:00,
2013-03-01 02:26:00,30.3,25.2,30.07,North,349,7.0,8.0,81,0.00,,---,0.00,0.00,VWS V14.01,2013-03-01 08:26:00,
2013-03-01 02:30:00,30.3,25.2,30.07,North,0,7.0,8.0,81,0.00,,---,0.00,0.00,VWS V14.01,2013-03-01 08:30:00,
2013-03-01 02:31:00,30.3,25.2,30.07,NW,319,2.0,8.0,81,0.00,,---,0.00,0.00,VWS V14.01,2013-03-01 08:31:00,
2013-03-01 02:35:00,30.3,25.2,30.07,NNW,337,3.0,9.0,81,0.00,,---,0.00,0.00,VWS V14.01,2013-03-01 08:35:00,
2013-03-01 02:36:00,30.3,25.2,30.07,North,350,7.0,7.0,81,0.00,,---,0.00,0.00,VWS V14.01,2013-03-01 08:36:00,
2013-03-01 02:40:00,30.3,25.2,30.07,North,0,3.0,10.0,81,0.00,,---,0.00,0.00,VWS V14.01,2013-03-01 08:40:00,
2013-03-01 02:41:00,30.3,25.2,30.07,North,353,6.0,10.0,81,0.00,,---,0.00,0.00,VWS V14.01,2013-03-01 08:41:00,
2013-03-01 02:45:00,30.3,25.2,30.07,NNW,332,7.0,10.0,81,0.00,,---,0.00,0.00,VWS V14.01,2013-03-01 08:45:00,
2013-03-01 02:46:00,30.3,24.9,30.07,North,356,5.0,9.0,80,0.00,,---,0.00,0.00,VWS V14.01,2013-03-01 08:46:00,
2013-03-01 02:50:00,30.3,24.9,30.07,NNW,330,2.0,10.0,80,0.00,,---,0.00,0.00,VWS V14.01,2013-03-01 08:50:00,
2013-03-01 02:51:00,30.3,24.9,30.07,NNW,333,4.0,7.0,80,0.00,,---,0.00,0.00,VWS V14.01,2013-03-01 08:51:00,
2013-03-01 02:55:00,30.3,24.9,30.07,North,0,5.0,8.0,80,0.00,,---,0.00,0.00,VWS V14.01,2013-03-01 08:55:00,
2013-03-01 02:56:00,30.3,24.9,30.07,NNW,330,8.0,9.0,80,0.00,,---,0.00,0.00,VWS V14.01,2013-03-01 08:56:00,
2013-03-01 03:00:00,30.3,24.9,30.07,North,0,6.0,9.0,80,0.00,,---,0.00,0.00,VWS V14.01,2013-03-01 09:00:00,
2013-03-01 03:02:00,30.3,24.9,30.07,NW,320,5.0,9.0,80,0.00,,---,0.00,0.00,VWS V14.01,2013-03-01 09:02:00,
2013-03-01 03:05:00,30.3,24.9,30.07,North,0,10.0,12.0,80,0.00,,---,0.00,0.00,VWS V14.01,2013-03-01 09:05:00,
2013-03-01 03:07:00,30.3,24.9,30.07,NW,316,8.0,10.0,80,0.00,,---,0.00,0.00,VWS V14.01,2013-03-01 09:07:00,
2013-03-01 03:10:00,30.3,24.9,30.07,NNW,342,8.0,12.0,80,0.00,,---,0.00,0.00,VWS V14.01,2013-03-01 09:10:00,
2013-03-01 03:12:00,30.3,24.9,30.07,NNW,343,3.0,8.0,80,0.00,,---,0.00,0.00,VWS V14.01,2013-03-01 09:12:00,
2013-03-01 03:15:00,30.3,24.9,30.07,NW,326,8.0,12.0,80,0.00,,---,0.00,0.00,VWS V14.01,2013-03-01 09:15:00,
2013-03-01 03:17:00,30.3,24.9,30.07,North,359,7.0,9.0,80,0.00,,---,0.00,0.00,VWS V14.01,2013-03-01 09:17:00,
2013-03-01 03:20:00,30.3,24.9,30.07,North,350,5.0,9.0,80,0.00,,---,0.00,0.00,VWS V14.01,2013-03-01 09:20:00,
2013-03-01 03:25:00,30.3,24.9,30.07,North,349,7.0,10.0,80,0.00,,---,0.00,0.00,VWS V14.01,2013-03-01 09:25:00,
2013-03-01 03:27:00,30.1,24.7,30.07,NNW,337,5.0,12.0,80,0.00,,---,0.00,0.00,VWS V14.01,2013-03-01 09:27:00,
2013-03-01 03:30:00,30.1,24.7,30.07,NNW,339,9.0,16.0,80,0.00,,---,0.00,0.00,VWS V14.01,2013-03-01 09:30:00,
2013-03-01 03:32:00,30.1,24.7,30.07,NNW,343,5.0,11.0,80,0.00,,---,0.00,0.00,VWS V14.01,2013-03-01 09:32:00,
2013-03-01 03:35:00,30.1,24.7,30.07,NNW,347,6.0,11.0,80,0.00,,---,0.00,0.00,VWS V14.01,2013-03-01 09:35:00,
2013-03-01 03:38:00,30.1,24.7,30.07,North,349,10.0,12.0,80,0.00,,---,0.00,0.00,VWS V14.01,2013-03-01 09:38:00,
2013-03-01 03:40:00,30.1,24.7,30.07,North,0,12.0,13.0,80,0.00,,---,0.00,0.00,VWS V14.01,2013-03-01 09:40:00,
2013-03-01 03:43:00,30.1,24.4,30.07,North,349,12.0,14.0,79,0.00,,---,0.00,0.00,VWS V14.01,2013-03-01 09:43:00,
2013-03-01 03:45:00,30.1,24.4,30.07,North,0,8.0,14.0,79,0.00,,---,0.00,0.00,VWS V14.01,2013-03-01 09:45:00,
2013-03-01 03:48:00,30.1,24.4,30.07,North,0,11.0,12.0,79,0.00,,---,0.00,0.00,VWS V14.01,2013-03-01 09:48:00,
2013-03-01 03:50:00,30.1,24.4,30.07,North,0,6.0,12.0,79,0.00,,---,0.00,0.00,VWS V14.01,2013-03-01 09:50:00,
2013-03-01 03:53:00,30.1,24.4,30.07,North,359,5.0,10.0,79,0.00,,---,0.00,0.00,VWS V14.01,2013-03-01 09:53:00,
2013-03-01 03:55:00,30.1,24.4,30.07,North,0,8.0,11.0,79,0.00,,---,0.00,0.00,VWS V14.01,2013-03-01 09:55:00,
2013-03-01 03:58:00,30.1,24.4,30.07,North,0,7.0,10.0,79,0.00,,---,0.00,0.00,VWS V14.01,2013-03-01 09:58:00,
2013-03-01 04:00:00,30.1,24.7,30.07,North,0,7.0,10.0,80,0.00,,---,0.00,0.00,VWS V14.01,2013-03-01 10:00:00,
2013-03-01 04:03:00,30.0,24.6,30.07,North,357,2.0,8.0,80,0.00,,---,0.00,0.00,VWS V14.01,2013-03-01 10:03:00,
2013-03-01 04:05:00,30.0,24.6,30.07,NW,326,4.0,8.0,80,0.00,,---,0.00,0.00,VWS V14.01,2013-03-01 10:05:00,
2013-03-01 04:08:00,30.0,24.6,30.07,North,353,7.0,11.0,80,0.00,,---,0.00,0.00,VWS V14.01,2013-03-01 10:08:00,
2013-03-01 04:10:00,30.0,24.6,30.07,North,354,6.0,11.0,80,0.00,,---,0.00,0.00,VWS V14.01,2013-03-01 10:10:00,
2013-03-01 04:13:00,30.0,24.6,30.08,North,357,6.0,10.0,80,0.00,,---,0.00,0.00,VWS V14.01,2013-03-01 10:13:00,
2013-03-01 04:15:00,29.8,24.4,30.08,North,0,7.0,11.0,80,0.00,,---,0.00,0.00,VWS V14.01,2013-03-01 10:15:00,
2013-03-01 04:18:00,29.8,24.4,30.08,North,0,8.0,14.0,80,0.00,,---,0.00,0.00,VWS V14.01,2013-03-01 10:18:00,
2013-03-01 04:20:00,29.8,24.4,30.08,North,359,12.0,14.0,80,0.00,,---,0.00,0.00,VWS V14.01,2013-03-01 10:20:00,
2013-03-01 04:23:00,29.7,24.0,30.08,North,354,10.0,17.0,79,0.00,,---,0.00,0.00,VWS V14.01,2013-03-01 10:23:00,
2013-03-01 04:25:00,29.5,23.8,30.08,North,0,13.0,17.0,79,0.00,,---,0.00,0.00,VWS V14.01,2013-03-01 10:25:00,
2013-03-01 04:29:00,29.5,23.5,30.08,North,0,14.0,17.0,78,0.00,,---,0.00,0.00,VWS V14.01,2013-03-01 10:29:00,
2013-03-01 04:30:00,29.5,23.5,30.08,North,354,10.0,17.0,78,0.00,,---,0.00,0.00,VWS V14.01,2013-03-01 10:30:00,
2013-03-01 04:34:00,29.4,23.4,30.08,North,0,12.0,17.0,78,0.00,,---,0.00,0.00,VWS V14.01,2013-03-01 10:34:00,
2013-03-01 04:35:00,29.4,23.4,30.08,North,357,10.0,17.0,78,0.00,,---,0.00,0.00,VWS V14.01,2013-03-01 10:35:00,
2013-03-01 04:39:00,29.4,23.4,30.08,North,0,11.0,17.0,78,0.00,,---,0.00,0.00,VWS V14.01,2013-03-01 10:39:00,
2013-03-01 04:40:00,29.4,23.4,30.08,North,0,11.0,17.0,78,0.00,,---,0.00,0.00,VWS V14.01,2013-03-01 10:40:00,
2013-03-01 04:44:00,29.4,23.4,30.08,North,0,6.0,16.0,78,0.00,,---,0.00,0.00,VWS V14.01,2013-03-01 10:44:00,
2013-03-01 04:45:00,29.4,23.4,30.08,North,0,8.0,16.0,78,0.00,,---,0.00,0.00,VWS V14.01,2013-03-01 10:45:00,
2013-03-01 04:49:00,29.4,23.4,30.08,North,356,12.0,13.0,78,0.00,,---,0.00,0.00,VWS V14.01,2013-03-01 10:49:00,
2013-03-01 04:50:00,29.4,23.4,30.08,North,356,12.0,13.0,78,0.00,,---,0.00,0.00,VWS V14.01,2013-03-01 10:50:00,
2013-03-01 04:54:00,29.3,23.3,30.08,NNW,330,7.0,8.0,78,0.00,,---,0.00,0.00,VWS V14.01,2013-03-01 10:54:00,
2013-03-01 04:55:00,29.3,23.3,30.08,North,359,8.0,13.0,78,0.00,,---,0.00,0.00,VWS V14.01,2013-03-01 10:55:00,
2013-03-01 04:59:00,29.3,23.3,30.08,SSE,147,8.0,12.0,78,0.00,,---,0.00,0.00,VWS V14.01,2013-03-01 10:59:00,
2013-03-01 05:00:00,29.3,23.3,30.08,NNW,344,9.0,13.0,78,0.00,,---,0.00,0.00,VWS V14.01,2013-03-01 11:00:00,
2013-03-01 05:04:00,29.3,23.3,30.08,North,357,6.0,6.0,78,0.00,,---,0.00,0.00,VWS V14.01,2013-03-01 11:04:00,
2013-03-01 05:05:00,29.3,23.3,30.08,North,0,6.0,14.0,78,0.00,,---,0.00,0.00,VWS V14.01,2013-03-01 11:05:00,
2013-03-01 05:09:00,29.3,23.3,30.08,North,0,9.0,11.0,78,0.00,,---,0.00,0.00,VWS V14.01,2013-03-01 11:09:00,
2013-03-01 05:10:00,29.3,23.3,30.08,North,0,7.0,12.0,78,0.00,,---,0.00,0.00,VWS V14.01,2013-03-01 11:10:00,
2013-03-01 05:15:00,29.3,23.3,30.09,North,0,9.0,10.0,78,0.00,,---,0.00,0.00,VWS V14.01,2013-03-01 11:15:00,
2013-03-01 05:20:00,29.3,23.3,30.09,SSE,152,11.0,14.0,78,0.00,,---,0.00,0.00,VWS V14.01,2013-03-01 11:20:00,
2013-03-01 05:25:00,29.3,23.3,30.09,North,357,12.0,14.0,78,0.00,,---,0.00,0.00,VWS V14.01,2013-03-01 11:25:00,
2013-03-01 05:30:00,29.3,23.3,30.09,East,92,7.0,11.0,78,0.00,,---,0.00,0.00,VWS V14.01,2013-03-01 11:30:00,
2013-03-01 05:35:00,29.1,23.1,30.09,ESE,110,10.0,10.0,78,0.00,,---,0.00,0.00,VWS V14.01,2013-03-01 11:35:00,
2013-03-01 05:40:00,29.1,23.4,30.09,NE,40,6.0,8.0,79,0.00,,---,0.00,0.00,VWS V14.01,2013-03-01 11:40:00,
2013-03-01 05:45:00,29.0,23.3,30.09,SE,143,11.0,16.0,79,0.00,,---,0.00,0.00,VWS V14.01,2013-03-01 11:45:00,
2013-03-01 05:50:00,28.8,23.1,30.09,North,352,8.0,13.0,79,0.00,,---,0.00,0.00,VWS V14.01,2013-03-01 11:50:00,
2013-03-01 05:55:00,28.8,23.1,30.09,SSE,151,6.0,13.0,79,0.00,,---,0.00,0.00,VWS V14.01,2013-03-01 11:55:00,
2013-03-01 05:56:00,28.8,23.1,30.09,South,188,6.0,13.0,79,0.00,,---,0.00,0.00,VWS V14.01,2013-03-01 11:56:00,
2013-03-01 06:00:00,27.9,21.9,30.11,South,191,11.0,13.0,78,0.00,,---,0.00,0.00,VWS V14.01,2013-03-01 12:00:00,
2013-03-01 06:01:00,28.7,23.0,30.09,NE,40,8.0,11.0,79,0.00,,---,0.00,0.00,VWS V14.01,2013-03-01 12:01:00,
2013-03-01 06:05:00,27.9,21.9,30.11,NW,304,10.0,13.0,78,0.00,,---,0.00,0.00,VWS V14.01,2013-03-01 12:05:00,
2013-03-01 06:06:00,28.5,22.8,30.09,East,80,10.0,12.0,79,0.00,,---,0.00,0.00,VWS V14.01,2013-03-01 12:06:00,
2013-03-01 06:10:00,27.8,21.8,30.11,SSW,206,12.0,13.0,78,0.00,,---,0.00,0.00,VWS V14.01,2013-03-01 12:10:00,
2013-03-01 06:11:00,28.4,22.7,30.09,NNE,17,9.0,14.0,79,0.00,,---,0.00,0.00,VWS V14.01,2013-03-01 12:11:00,
2013-03-01 06:15:00,27.8,21.8,30.11,NE,51,9.0,13.0,78,0.00,,---,0.00,0.00,VWS V14.01,2013-03-01 12:15:00,
2013-03-01 06:16:00,28.4,22.7,30.10,SSE,164,6.0,9.0,79,0.00,,---,0.00,0.00,VWS V14.01,2013-03-01 12:16:00,
2013-03-01 06:20:00,27.8,21.8,30.11,NNE,32,9.0,10.0,78,0.00,,---,0.00,0.00,VWS V14.01,2013-03-01 12:20:00,
2013-03-01 06:21:00,28.2,22.5,30.10,South,189,9.0,14.0,79,0.00,,---,0.00,0.00,VWS V14.01,2013-03-01 12:21:00,
2013-03-01 06:25:00,27.8,21.8,30.11,North,7,8.0,11.0,78,0.00,,---,0.00,0.00,VWS V14.01,2013-03-01 12:25:00,
2013-03-01 06:26:00,28.2,22.5,30.10,ENE,65,6.0,12.0,79,0.00,,---,0.00,0.00,VWS V14.01,2013-03-01 12:26:00,
2013-03-01 06:30:00,27.8,21.8,30.11,NNW,328,6.0,10.0,78,0.00,,---,0.00,9.00,VWS V14.01,2013-03-01 12:30:00,
2013-03-01 06:31:00,28.2,22.5,30.10,North,354,7.0,13.0,79,0.00,,---,0.00,0.00,VWS V14.01,2013-03-01 12:31:00,
2013-03-01 06:35:00,27.8,21.8,30.11,SE,137,8.0,9.0,78,0.00,,---,0.00,11.00,VWS V14.01,2013-03-01 12:35:00,
2013-03-01 06:36:00,28.1,22.4,30.10,NW,312,12.0,13.0,79,0.00,,---,0.00,0.00,VWS V14.01,2013-03-01 12:36:00,
2013-03-01 06:40:00,27.8,21.8,30.11,North,0,7.0,13.0,78,0.00,,---,0.00,18.00,VWS V14.01,2013-03-01 12:40:00,
2013-03-01 06:41:00,28.1,22.4,30.10,SW,215,12.0,14.0,79,0.00,,---,0.00,0.00,VWS V14.01,2013-03-01 12:41:00,
2013-03-01 06:45:00,27.9,21.9,30.12,North,0,11.0,12.0,78,0.00,,---,0.00,21.00,VWS V14.01,2013-03-01 12:45:00,
2013-03-01 06:46:00,28.1,22.4,30.11,North,353,10.0,16.0,79,0.00,,---,0.00,0.00,VWS V14.01,2013-03-01 12:46:00,
2013-03-01 06:50:00,28.1,22.1,30.12,North,0,9.0,11.0,78,0.00,,---,0.00,25.00,VWS V14.01,2013-03-01 12:50:00,
2013-03-01 06:51:00,28.1,22.4,30.11,North,1,8.0,14.0,79,0.00,,---,0.00,0.00,VWS V14.01,2013-03-01 12:51:00,
2013-03-01 06:55:00,28.1,22.1,30.12,North,0,7.0,11.0,78,0.00,,---,0.00,32.00,VWS V14.01,2013-03-01 12:55:00,
2013-03-01 06:57:00,28.1,22.1,30.11,ENE,64,12.0,13.0,78,0.00,,---,0.00,0.00,VWS V14.01,2013-03-01 12:57:00,
2013-03-01 07:00:00,28.1,22.1,30.13,North,352,7.0,11.0,78,0.00,,---,0.00,42.00,VWS V14.01,2013-03-01 13:00:00,
2013-03-01 07:02:00,27.9,21.9,30.11,WSW,257,11.0,13.0,78,0.00,,---,0.00,0.00,VWS V14.01,2013-03-01 13:02:00,
2013-03-01 07:05:00,28.2,22.2,30.13,North,359,11.0,14.0,78,0.00,,---,0.00,46.00,VWS V14.01,2013-03-01 13:05:00,
2013-03-01 07:07:00,27.9,21.9,30.11,WNW,295,10.0,12.0,78,0.00,,---,0.00,0.00,VWS V14.01,2013-03-01 13:07:00,
2013-03-01 07:10:00,28.4,22.1,30.13,NW,325,9.0,12.0,77,0.00,,---,0.00,46.00,VWS V14.01,2013-03-01 13:10:00,
2013-03-01 07:12:00,27.8,21.9,30.11,South,172,8.0,12.0,78,0.00,,---,0.00,0.00,VWS V14.01,2013-03-01 13:12:00,
2013-03-01 07:15:00,28.4,22.1,30.13,North,352,7.0,11.0,77,0.00,,---,0.00,48.00,VWS V14.01,2013-03-01 13:15:00,
2013-03-01 07:17:00,27.8,21.9,30.11,NNW,340,3.0,10.0,78,0.00,,---,0.00,0.00,VWS V14.01,2013-03-01 13:17:00,
2013-03-01 07:20:00,28.4,22.1,30.13,North,0,8.0,11.0,77,0.00,,---,0.00,51.00,VWS V14.01,2013-03-01 13:20:00,
2013-03-01 07:22:00,27.8,21.9,30.11,SSE,167,7.0,11.0,78,0.00,,---,0.00,0.00,VWS V14.01,2013-03-01 13:22:00,
2013-03-01 07:25:00,28.5,22.2,30.13,North,357,4.0,11.0,77,0.00,,---,0.00,65.00,VWS V14.01,2013-03-01 13:25:00,
2013-03-01 07:27:00,27.8,21.9,30.11,NE,40,7.0,10.0,78,0.00,,---,0.00,9.00,VWS V14.01,2013-03-01 13:27:00,
2013-03-01 07:30:00,28.5,22.2,30.14,NNW,337,7.0,10.0,77,0.00,,---,0.00,74.00,VWS V14.01,2013-03-01 13:30:00,
2013-03-01 07:32:00,27.8,21.9,30.11,NNW,336,7.0,9.0,78,0.00,,---,0.00,11.00,VWS V14.01,2013-03-01 13:32:00,
2013-03-01 07:35:00,28.5,21.9,30.14,North,359,8.0,13.0,76,0.00,,---,0.00,81.00,VWS V14.01,2013-03-01 13:35:00,
2013-03-01 07:37:00,27.8,21.9,30.11,North,353,13.0,13.0,78,0.00,,---,0.00,14.00,VWS V14.01,2013-03-01 13:37:00,
2013-03-01 07:40:00,28.7,22.1,30.14,North,0,4.0,11.0,76,0.00,,---,0.00,90.00,VWS V14.01,2013-03-01 13:40:00,
2013-03-01 07:42:00,27.9,21.9,30.11,ESE,119,6.0,9.0,78,0.00,,---,0.00,21.00,VWS V14.01,2013-03-01 13:42:00,
2013-03-01 07:45:00,28.8,22.2,30.13,North,0,7.0,12.0,76,0.00,,---,0.00,106.00,VWS V14.01,2013-03-01 13:45:00,
2013-03-01 07:47:00,27.9,21.9,30.12,North,0,8.0,11.0,78,0.00,,---,0.00,25.00,VWS V14.01,2013-03-01 13:47:00,
2013-03-01 07:50:00,29.0,22.4,30.13,North,0,7.0,12.0,76,0.00,,---,0.00,114.00,VWS V14.01,2013-03-01 13:50:00,
2013-03-01 07:52:00,28.1,22.1,30.12,North,359,9.0,11.0,78,0.00,,---,0.00,32.00,VWS V14.01,2013-03-01 13:52:00,
2013-03-01 07:55:00,29.0,22.1,30.13,North,0,7.0,11.0,75,0.00,,---,0.00,120.00,VWS V14.01,2013-03-01 13:55:00,
2013-03-01 07:57:00,28.1,22.1,30.12,North,0,5.0,11.0,78,0.00,,---,0.00,35.00,VWS V14.01,2013-03-01 13:57:00,
2013-03-01 08:00:00,29.0,22.1,30.13,North,357,10.0,14.0,75,0.00,,---,0.00,120.00,VWS V14.01,2013-03-01 14:00:00,
2013-03-01 08:03:00,28.2,22.2,30.13,NW,320,8.0,12.0,78,0.00,,---,0.00,42.00,VWS V14.01,2013-03-01 14:03:00,
2013-03-01 08:05:00,29.0,22.1,30.13,North,352,10.0,13.0,75,0.00,,---,0.00,125.00,VWS V14.01,2013-03-01 14:05:00,
2013-03-01 08:08:00,28.4,22.1,30.13,North,0,10.0,11.0,77,0.00,,---,0.00,46.00,VWS V14.01,2013-03-01 14:08:00,
2013-03-01 08:10:00,29.1,22.2,30.13,NNW,347,10.0,13.0,75,0.00,,---,0.00,127.00,VWS V14.01,2013-03-01 14:10:00,
2013-03-01 08:13:00,28.4,22.1,30.13,NW,316,6.0,11.0,77,0.00,,---,0.00,48.00,VWS V14.01,2013-03-01 14:13:00,
2013-03-01 08:15:00,29.1,22.2,30.14,North,0,10.0,17.0,75,0.00,,---,0.00,139.00,VWS V14.01,2013-03-01 14:15:00,
2013-03-01 08:18:00,28.4,22.1,30.13,SE,130,10.0,11.0,77,0.00,,---,0.00,51.00,VWS V14.01,2013-03-01 14:18:00,
2013-03-01 08:20:00,29.3,22.1,30.14,NNW,332,12.0,15.0,74,0.00,,---,0.00,153.00,VWS V14.01,2013-03-01 14:20:00,
2013-03-01 08:23:00,28.5,22.2,30.13,North,354,6.0,11.0,77,0.00,,---,0.00,63.00,VWS V14.01,2013-03-01 14:23:00,
2013-03-01 08:25:00,29.4,22.1,30.14,North,0,7.0,16.0,74,0.00,,---,0.00,160.00,VWS V14.01,2013-03-01 14:25:00,
2013-03-01 08:28:00,28.5,22.2,30.13,North,359,7.0,10.0,77,0.00,,---,0.00,72.00,VWS V14.01,2013-03-01 14:28:00,
2013-03-01 08:30:00,29.4,21.8,30.14,NW,323,8.0,17.0,73,0.00,,---,0.00,169.00,VWS V14.01,2013-03-01 14:30:00,
2013-03-01 08:33:00,28.5,21.9,30.14,North,0,5.0,13.0,76,0.00,,---,0.00,81.00,VWS V14.01,2013-03-01 14:33:00,
2013-03-01 08:35:00,29.5,21.9,30.14,North,0,10.0,17.0,73,0.00,,---,0.00,183.00,VWS V14.01,2013-03-01 14:35:00,
2013-03-01 08:38:00,28.7,22.1,30.14,North,352,7.0,11.0,76,0.00,,---,0.00,86.00,VWS V14.01,2013-03-01 14:38:00,
2013-03-01 08:40:00,29.4,21.5,30.14,NNW,339,16.0,20.0,72,0.00,,---,0.00,183.00,VWS V14.01,2013-03-01 14:40:00,
2013-03-01 08:43:00,28.8,22.2,30.13,North,0,6.0,12.0,76,0.00,,---,0.00,102.00,VWS V14.01,2013-03-01 14:43:00,
2013-03-01 08:45:00,29.4,21.5,30.14,North,0,16.0,18.0,72,0.00,,---,0.00,197.00,VWS V14.01,2013-03-01 14:45:00,
2013-03-01 08:48:00,29.0,22.4,30.13,North,353,7.0,12.0,76,0.00,,---,0.00,111.00,VWS V14.01,2013-03-01 14:48:00,
2013-03-01 08:50:00,29.5,21.3,30.14,North,0,13.0,18.0,71,0.00,,---,0.00,206.00,VWS V14.01,2013-03-01 14:50:00,
2013-03-01 08:53:00,29.0,22.1,30.13,North,0,8.0,11.0,75,0.00,,---,0.00,116.00,VWS V14.01,2013-03-01 14:53:00,
2013-03-01 08:55:00,29.8,21.6,30.14,North,357,17.0,18.0,71,0.00,,---,0.00,229.00,VWS V14.01,2013-03-01 14:55:00,
2013-03-01 08:58:00,29.0,22.1,30.13,North,0,6.0,14.0,75,0.00,,---,0.00,120.00,VWS V14.01,2013-03-01 14:58:00,
2013-03-01 09:00:00,29.8,21.2,30.14,North,0,14.0,20.0,70,0.00,,---,0.00,208.00,VWS V14.01,2013-03-01 15:00:00,
2013-03-01 09:03:00,29.0,22.1,30.13,North,357,10.0,13.0,75,0.00,,---,0.00,123.00,VWS V14.01,2013-03-01 15:03:00,
2013-03-01 09:05:00,30.0,21.1,30.14,North,0,14.0,19.0,69,0.00,,---,0.00,204.00,VWS V14.01,2013-03-01 15:05:00,
2013-03-01 09:08:00,29.1,22.2,30.13,North,357,8.0,13.0,75,0.00,,---,0.00,127.00,VWS V14.01,2013-03-01 15:08:00,
2013-03-01 09:10:00,30.1,21.5,30.14,North,354,11.0,18.0,70,0.00,,---,0.00,201.00,VWS V14.01,2013-03-01 15:10:00,
2013-03-01 09:14:00,29.1,22.2,30.14,North,0,12.0,17.0,75,0.00,,---,0.00,139.00,VWS V14.01,2013-03-01 15:14:00,
2013-03-01 09:15:00,29.8,21.2,30.14,North,356,13.0,17.0,70,0.00,,---,0.00,264.00,VWS V14.01,2013-03-01 15:15:00,
2013-03-01 09:19:00,29.3,22.1,30.14,North,359,12.0,15.0,74,0.00,,---,0.00,153.00,VWS V14.01,2013-03-01 15:19:00,
2013-03-01 09:20:00,29.7,21.1,30.14,North,359,12.0,19.0,70,0.00,,---,0.00,299.00,VWS V14.01,2013-03-01 15:20:00,
2013-03-01 09:24:00,29.4,22.1,30.14,North,354,6.0,16.0,74,0.00,,---,0.00,160.00,VWS V14.01,2013-03-01 15:24:00,
2013-03-01 09:25:00,29.7,20.8,30.14,WNW,294,7.0,22.0,69,0.00,,---,0.00,303.00,VWS V14.01,2013-03-01 15:25:00,
2013-03-01 09:29:00,29.4,21.8,30.14,NNW,339,12.0,17.0,73,0.00,,---,0.00,169.00,VWS V14.01,2013-03-01 15:29:00,
2013-03-01 09:30:00,29.7,20.5,30.14,North,0,13.0,21.0,68,0.00,,---,0.00,294.00,VWS V14.01,2013-03-01 15:30:00,
2013-03-01 09:34:00,29.5,21.9,30.14,North,0,10.0,17.0,73,0.00,,---,0.00,183.00,VWS V14.01,2013-03-01 15:34:00,
2013-03-01 09:35:00,29.8,20.9,30.14,North,0,12.0,16.0,69,0.00,,---,0.00,297.00,VWS V14.01,2013-03-01 15:35:00,
2013-03-01 09:39:00,29.4,21.5,30.14,North,4,13.0,16.0,72,0.00,,---,0.00,183.00,VWS V14.01,2013-03-01 15:39:00,
2013-03-01 09:40:00,29.8,20.9,30.14,North,0,16.0,20.0,69,0.00,,---,0.00,290.00,VWS V14.01,2013-03-01 15:40:00,
2013-03-01 09:44:00,29.4,21.2,30.14,NE,47,17.0,17.0,71,0.00,,---,0.00,197.00,VWS V14.01,2013-03-01 15:44:00,
2013-03-01 09:45:00,29.8,20.9,30.14,North,349,11.0,18.0,69,0.00,,---,0.00,310.00,VWS V14.01,2013-03-01 15:45:00,
2013-03-01 09:49:00,29.7,21.5,30.14,North,353,16.0,16.0,71,0.00,,---,0.00,216.00,VWS V14.01,2013-03-01 15:49:00,
2013-03-01 09:50:00,30.3,21.4,30.14,North,0,13.0,19.0,69,0.00,,---,0.00,336.00,VWS V14.01,2013-03-01 15:50:00,
2013-03-01 09:54:00,29.8,21.2,30.14,NW,313,15.0,17.0,70,0.00,,---,0.00,223.00,VWS V14.01,2013-03-01 15:54:00,
2013-03-01 09:55:00,30.7,21.8,30.14,NNW,347,12.0,19.0,69,0.00,,---,0.00,352.00,VWS V14.01,2013-03-01 15:55:00,
2013-03-01 09:59:00,29.8,21.2,30.14,North,0,11.0,19.0,70,0.00,,---,0.00,202.00,VWS V14.01,2013-03-01 15:59:00,
2013-03-01 10:00:00,30.9,21.6,30.14,North,350,11.0,21.0,68,0.00,,---,0.00,341.00,VWS V14.01,2013-03-01 16:00:00,
2013-03-01 10:05:00,30.0,21.1,30.14,North,356,12.0,18.0,69,0.00,,---,0.00,199.00,VWS V14.01,2013-03-01 16:05:00,
2013-03-01 10:10:00,30.1,21.5,30.14,North,349,11.0,12.0,70,0.00,,---,0.00,206.00,VWS V14.01,2013-03-01 16:10:00,
2013-03-01 10:15:00,29.8,21.2,30.14,North,0,18.0,18.0,70,0.00,,---,0.00,290.00,VWS V14.01,2013-03-01 16:15:00,
2013-03-01 10:20:00,29.7,21.1,30.14,North,359,13.0,17.0,70,0.00,,---,0.00,294.00,VWS V14.01,2013-03-01 16:20:00,
2013-03-01 10:25:00,29.8,20.9,30.14,North,0,12.0,15.0,69,0.00,,---,0.00,294.00,VWS V14.01,2013-03-01 16:25:00,
2013-03-01 10:30:00,29.7,20.8,30.14,North,1,12.0,13.0,69,0.00,,---,0.00,299.00,VWS V14.01,2013-03-01 16:30:00,
2013-03-01 10:35:00,29.8,20.9,30.14,North,0,14.0,20.0,69,0.00,,---,0.00,297.00,VWS V14.01,2013-03-01 16:35:00,
2013-03-01 10:40:00,29.8,20.9,30.14,NNW,343,16.0,17.0,69,0.00,,---,0.00,306.00,VWS V14.01,2013-03-01 16:40:00,
2013-03-01 10:45:00,30.0,21.4,30.14,North,359,11.0,14.0,70,0.00,,---,0.00,308.00,VWS V14.01,2013-03-01 16:45:00,
2013-03-01 10:50:00,30.4,21.5,30.14,North,0,12.0,13.0,69,0.00,,---,0.00,355.00,VWS V14.01,2013-03-01 16:50:00,
2013-03-01 10:55:00,31.0,20.6,30.14,North,356,17.0,19.0,65,0.00,,---,0.00,440.00,VWS V14.01,2013-03-01 16:55:00,
2013-03-01 10:56:00,30.9,21.9,30.14,NW,322,12.0,14.0,69,0.00,,---,0.00,350.00,VWS V14.01,2013-03-01 16:56:00,
2013-03-01 11:00:00,31.3,21.3,30.14,NW,319,10.0,17.0,66,0.00,,---,0.00,384.00,VWS V14.01,2013-03-01 17:00:00,
2013-03-01 11:01:00,30.9,21.6,30.14,North,0,19.0,19.0,68,0.00,,---,0.00,345.00,VWS V14.01,2013-03-01 17:01:00,
2013-03-01 11:05:00,31.6,21.6,30.14,NNW,333,13.0,20.0,66,0.00,,---,0.00,468.00,VWS V14.01,2013-03-01 17:05:00,
2013-03-01 11:06:00,30.9,21.2,30.14,North,359,13.0,19.0,67,0.00,,---,0.00,375.00,VWS V14.01,2013-03-01 17:06:00,
2013-03-01 11:10:00,32.2,21.8,30.14,North,350,14.0,19.0,65,0.00,,---,0.00,475.00,VWS V14.01,2013-03-01 17:10:00,
2013-03-01 11:11:00,30.9,20.9,30.14,North,359,13.0,17.0,66,0.00,,---,0.00,399.00,VWS V14.01,2013-03-01 17:11:00,
2013-03-01 11:15:00,32.5,21.7,30.14,North,0,16.0,18.0,64,0.00,,---,0.00,384.00,VWS V14.01,2013-03-01 17:15:00,
2013-03-01 11:16:00,31.2,20.8,30.14,NNW,344,16.0,21.0,65,0.00,,---,0.00,906.00,VWS V14.01,2013-03-01 17:16:00,
2013-03-01 11:20:00,32.4,21.2,30.14,North,354,20.0,20.0,63,0.00,,---,0.00,822.00,VWS V14.01,2013-03-01 17:20:00,
2013-03-01 11:21:00,31.3,20.9,30.14,NW,318,17.0,19.0,65,0.00,,---,0.00,387.00,VWS V14.01,2013-03-01 17:21:00,
2013-03-01 11:25:00,32.5,20.9,30.14,NW,318,18.0,20.0,62,0.00,,---,0.00,415.00,VWS V14.01,2013-03-01 17:25:00,
2013-03-01 11:26:00,31.3,20.9,30.14,NNW,336,12.0,19.0,65,0.00,,---,0.00,408.00,VWS V14.01,2013-03-01 17:26:00,
2013-03-01 11:30:00,32.5,21.3,30.14,NNW,330,12.0,19.0,63,0.00,,---,0.00,415.00,VWS V14.01,2013-03-01 17:30:00,
2013-03-01 11:31:00,31.5,21.1,30.14,North,352,14.0,19.0,65,0.00,,---,0.00,387.00,VWS V14.01,2013-03-01 17:31:00,
2013-03-01 11:35:00,32.4,21.2,30.14,North,0,15.0,17.0,63,0.00,,---,0.00,440.00,VWS V14.01,2013-03-01 17:35:00,
2013-03-01 11:36:00,31.8,21.4,30.14,NW,323,18.0,18.0,65,0.00,,---,0.00,392.00,VWS V14.01,2013-03-01 17:36:00,
2013-03-01 11:40:00,32.4,21.2,30.14,North,0,12.0,19.0,63,0.00,,---,0.00,461.00,VWS V14.01,2013-03-01 17:40:00,
2013-03-01 11:41:00,31.9,21.5,30.14,North,354,8.0,16.0,65,0.00,,---,0.00,399.00,VWS V14.01,2013-03-01 17:41:00,
2013-03-01 11:45:00,32.7,21.5,30.14,North,353,14.0,19.0,63,0.00,,---,0.00,465.00,VWS V14.01,2013-03-01 17:45:00,
2013-03-01 11:46:00,31.9,21.5,30.14,North,0,10.0,18.0,65,0.00,,---,0.00,440.00,VWS V14.01,2013-03-01 17:46:00,
2013-03-01 11:50:00,32.8,21.6,30.14,North,0,8.0,18.0,63,0.00,,---,0.00,486.00,VWS V14.01,2013-03-01 17:50:00,
2013-03-01 11:51:00,31.2,20.8,30.14,North,357,11.0,19.0,65,0.00,,---,0.00,428.00,VWS V14.01,2013-03-01 17:51:00,
2013-03-01 11:55:00,32.9,21.7,30.14,NNW,340,14.0,18.0,63,0.00,,---,0.00,408.00,VWS V14.01,2013-03-01 17:55:00,
2013-03-01 11:57:00,31.0,21.0,30.14,North,359,10.0,17.0,66,0.00,,---,0.00,408.00,VWS V14.01,2013-03-01 17:57:00,
2013-03-01 12:00:00,32.9,21.7,30.14,NNW,344,10.0,19.0,63,0.00,,---,0.00,412.00,VWS V14.01,2013-03-01 18:00:00,
2013-03-01 12:02:00,31.3,21.3,30.14,North,352,13.0,17.0,66,0.00,,---,0.00,463.00,VWS V14.01,2013-03-01 18:02:00,
2013-03-01 12:05:00,32.4,21.6,30.14,North,0,13.0,17.0,64,0.00,,---,0.00,421.00,VWS V14.01,2013-03-01 18:05:00,
2013-03-01 12:07:00,31.9,21.5,30.14,NW,325,18.0,19.0,65,0.00,,---,0.00,500.00,VWS V14.01,2013-03-01 18:07:00,
2013-03-01 12:10:00,32.5,21.7,30.14,North,0,18.0,19.0,64,0.00,,---,0.00,389.00,VWS V14.01,2013-03-01 18:10:00,
2013-03-01 12:12:00,32.4,21.6,30.14,NW,322,7.0,18.0,64,0.00,,---,0.00,449.00,VWS V14.01,2013-03-01 18:12:00,
2013-03-01 12:15:00,32.9,21.7,30.13,North,0,15.0,20.0,63,0.00,,---,0.00,528.00,VWS V14.01,2013-03-01 18:15:00,
2013-03-01 12:17:00,32.4,20.9,30.14,North,0,11.0,20.0,62,0.00,,---,0.00,822.00,VWS V14.01,2013-03-01 18:17:00,
2013-03-01 12:20:00,33.1,21.5,30.13,East,96,9.0,21.0,62,0.00,,---,0.00,436.00,VWS V14.01,2013-03-01 18:20:00,
2013-03-01 12:22:00,32.5,21.3,30.14,NNW,347,15.0,20.0,63,0.00,,---,0.00,413.00,VWS V14.01,2013-03-01 18:22:00,
2013-03-01 12:25:00,32.9,21.7,30.13,North,0,11.0,19.0,63,0.00,,---,0.00,431.00,VWS V14.01,2013-03-01 18:25:00,
2013-03-01 12:27:00,32.5,21.3,30.14,North,356,16.0,19.0,63,0.00,,---,0.00,375.00,VWS V14.01,2013-03-01 18:27:00,
2013-03-01 12:30:00,32.9,21.7,30.13,NW,326,6.0,19.0,63,0.00,,---,0.00,459.00,VWS V14.01,2013-03-01 18:30:00,
2013-03-01 12:32:00,32.5,21.3,30.14,NNW,347,13.0,16.0,63,0.00,,---,0.00,428.00,VWS V14.01,2013-03-01 18:32:00,
2013-03-01 12:35:00,33.1,21.9,30.13,North,0,18.0,21.0,63,0.00,,---,0.00,382.00,VWS V14.01,2013-03-01 18:35:00,
2013-03-01 12:37:00,32.4,20.9,30.14,NW,326,9.0,19.0,62,0.00,,---,0.00,429.00,VWS V14.01,2013-03-01 18:37:00,
2013-03-01 12:40:00,32.9,21.3,30.13,North,0,14.0,20.0,62,0.00,,---,0.00,392.00,VWS V14.01,2013-03-01 18:40:00,
2013-03-01 12:43:00,32.7,21.9,30.14,NNW,333,8.0,19.0,64,0.00,,---,0.00,459.00,VWS V14.01,2013-03-01 18:43:00,
2013-03-01 12:45:00,32.8,21.2,30.13,North,0,14.0,18.0,62,0.00,,---,0.00,399.00,VWS V14.01,2013-03-01 18:45:00,
2013-03-01 12:48:00,32.7,21.5,30.14,North,354,16.0,18.0,63,0.00,,---,0.00,465.00,VWS V14.01,2013-03-01 18:48:00,
2013-03-01 12:50:00,32.7,21.1,30.13,NW,315,16.0,18.0,62,0.00,,---,0.00,266.00,VWS V14.01,2013-03-01 18:50:00,
2013-03-01 12:53:00,32.9,21.7,30.14,North,0,13.0,18.0,63,0.00,,---,0.00,438.00,VWS V14.01,2013-03-01 18:53:00,
2013-03-01 12:55:00,32.9,20.5,30.13,North,350,12.0,20.0,60,0.00,,---,0.00,366.00,VWS V14.01,2013-03-01 18:55:00,
2013-03-01 12:58:00,32.9,21.7,30.14,North,357,12.0,19.0,63,0.00,,---,0.00,457.00,VWS V14.01,2013-03-01 18:58:00,
2013-03-01 13:00:00,33.1,21.1,30.12,North,356,17.0,18.0,61,0.00,,---,0.00,408.00,VWS V14.01,2013-03-01 19:00:00,
2013-03-01 13:03:00,32.4,21.6,30.14,NE,47,10.0,17.0,64,0.00,,---,0.00,415.00,VWS V14.01,2013-03-01 19:03:00,
2013-03-01 13:05:00,33.2,21.2,30.12,North,0,12.0,20.0,61,0.00,,---,0.00,461.00,VWS V14.01,2013-03-01 19:05:00,
2013-03-01 13:08:00,32.5,21.7,30.14,North,0,13.0,19.0,64,0.00,,---,0.00,389.00,VWS V14.01,2013-03-01 19:08:00,
2013-03-01 13:10:00,33.8,21.8,30.12,North,0,16.0,16.0,61,0.00,,---,0.00,1035.00,VWS V14.01,2013-03-01 19:10:00,
2013-03-01 13:13:00,32.8,21.6,30.13,North,356,14.0,20.0,63,0.00,,---,0.00,528.00,VWS V14.01,2013-03-01 19:13:00,
2013-03-01 13:15:00,34.3,21.5,30.12,North,0,15.0,17.0,59,0.00,,---,0.00,412.00,VWS V14.01,2013-03-01 19:15:00,
2013-03-01 13:19:00,33.1,21.5,30.13,NW,315,12.0,21.0,62,0.00,,---,0.00,436.00,VWS V14.01,2013-03-01 19:19:00,
2013-03-01 13:20:00,33.5,20.7,30.12,NW,320,10.0,21.0,59,0.00,,---,0.00,436.00,VWS V14.01,2013-03-01 19:20:00,
2013-03-01 13:24:00,32.9,21.7,30.13,NNW,337,18.0,19.0,63,0.00,,---,0.00,431.00,VWS V14.01,2013-03-01 19:24:00,
2013-03-01 13:25:00,33.5,21.1,30.12,North,354,14.0,18.0,60,0.00,,---,0.00,331.00,VWS V14.01,2013-03-01 19:25:00,
2013-03-01 13:29:00,32.9,21.7,30.13,North,349,14.0,19.0,63,0.00,,---,0.00,459.00,VWS V14.01,2013-03-01 19:29:00,
2013-03-01 13:30:00,33.7,22.1,30.12,North,0,13.0,16.0,62,0.00,,---,0.00,412.00,VWS V14.01,2013-03-01 19:30:00,
2013-03-01 13:34:00,33.1,21.9,30.13,North,0,18.0,21.0,63,0.00,,---,0.00,382.00,VWS V14.01,2013-03-01 19:34:00,
2013-03-01 13:35:00,33.5,21.5,30.12,NNW,332,13.0,18.0,61,0.00,,---,0.00,375.00,VWS V14.01,2013-03-01 19:35:00,
2013-03-01 13:39:00,32.9,21.3,30.13,North,357,18.0,18.0,62,0.00,,---,0.00,392.00,VWS V14.01,2013-03-01 19:39:00,
2013-03-01 13:40:00,33.7,21.7,30.12,North,0,16.0,16.0,61,0.00,,---,0.00,436.00,VWS V14.01,2013-03-01 19:40:00,
2013-03-01 13:44:00,32.8,21.2,30.13,North,354,16.0,16.0,62,0.00,,---,0.00,296.00,VWS V14.01,2013-03-01 19:44:00,
2013-03-01 13:45:00,33.4,20.6,30.12,NNW,340,12.0,19.0,59,0.00,,---,0.00,357.00,VWS V14.01,2013-03-01 19:45:00,
2013-03-01 13:49:00,32.7,21.1,30.13,North,350,11.0,16.0,62,0.00,,---,0.00,431.00,VWS V14.01,2013-03-01 19:49:00,
2013-03-01 13:50:00,33.4,20.6,30.12,North,359,17.0,20.0,59,0.00,,---,0.00,322.00,VWS V14.01,2013-03-01 19:50:00,
2013-03-01 13:54:00,32.9,20.5,30.13,West,274,12.0,16.0,60,0.00,,---,0.00,380.00,VWS V14.01,2013-03-01 19:54:00,
2013-03-01 13:55:00,32.7,20.0,30.12,North,0,17.0,21.0,59,0.00,,---,0.00,304.00,VWS V14.01,2013-03-01 19:55:00,
2013-03-01 13:59:00,33.1,20.7,30.12,NNW,343,10.0,17.0,60,0.00,,---,0.00,408.00,VWS V14.01,2013-03-01 19:59:00,
2013-03-01 14:00:00,31.9,20.0,30.12,ESE,109,13.0,19.0,61,0.00,,---,0.00,285.00,VWS V14.01,2013-03-01 20:00:00,
2013-03-01 14:05:00,33.4,21.0,30.12,North,0,8.0,16.0,60,0.00,,---,0.00,443.00,VWS V14.01,2013-03-01 20:05:00,
2013-03-01 14:10:00,33.8,21.8,30.12,NNW,336,3.0,17.0,61,0.00,,---,0.00,523.00,VWS V14.01,2013-03-01 20:10:00,
2013-03-01 14:15:00,34.3,21.5,30.12,North,0,7.0,15.0,59,0.00,,---,0.00,459.00,VWS V14.01,2013-03-01 20:15:00,
2013-03-01 14:20:00,33.5,21.1,30.12,NNW,347,9.0,15.0,60,0.00,,---,0.00,338.00,VWS V14.01,2013-03-01 20:20:00,
2013-03-01 14:25:00,33.5,21.1,30.12,North,0,11.0,16.0,60,0.00,,---,0.00,331.00,VWS V14.01,2013-03-01 20:25:00,
2013-03-01 14:30:00,33.7,21.7,30.12,NNW,329,12.0,13.0,61,0.00,,---,0.00,329.00,VWS V14.01,2013-03-01 20:30:00,
2013-03-01 14:35:00,33.5,21.5,30.12,North,357,12.0,16.0,61,0.00,,---,0.00,926.00,VWS V14.01,2013-03-01 20:35:00,
2013-03-01 14:40:00,33.5,20.7,30.12,NW,325,12.0,19.0,59,0.00,,---,0.00,333.00,VWS V14.01,2013-03-01 20:40:00,
2013-03-01 14:45:00,33.5,21.1,30.12,North,356,6.0,12.0,60,0.00,,---,0.00,357.00,VWS V14.01,2013-03-01 20:45:00,
2013-03-01 14:50:00,33.4,21.0,30.12,NW,326,18.0,18.0,60,0.00,,---,0.00,322.00,VWS V14.01,2013-03-01 20:50:00,
2013-03-01 14:55:00,31.3,19.4,30.14,North,352,10.0,21.0,61,0.00,,---,0.00,496.00,VWS V14.01,2013-03-01 20:55:00,
2013-03-01 14:56:00,32.2,19.9,30.12,North,359,13.0,19.0,60,0.00,,---,0.00,289.00,VWS V14.01,2013-03-01 20:56:00,
2013-03-01 15:00:00,31.9,20.0,30.13,East,82,11.0,19.0,61,0.00,,---,0.00,531.00,VWS V14.01,2013-03-01 21:00:00,
2013-03-01 15:01:00,31.8,20.3,30.12,North,6,15.0,16.0,62,0.00,,---,0.00,296.00,VWS V14.01,2013-03-01 21:01:00,
2013-03-01 15:05:00,31.9,19.2,30.13,North,0,16.0,22.0,59,0.00,,---,0.00,545.00,VWS V14.01,2013-03-01 21:05:00,
2013-03-01 15:06:00,31.9,20.0,30.12,North,6,17.0,17.0,61,0.00,,---,0.00,361.00,VWS V14.01,2013-03-01 21:06:00,
2013-03-01 15:10:00,31.5,18.8,30.13,North,357,12.0,20.0,59,0.00,,---,0.00,294.00,VWS V14.01,2013-03-01 21:10:00,
2013-03-01 15:11:00,32.2,19.9,30.12,North,0,19.0,20.0,60,0.00,,---,0.00,292.00,VWS V14.01,2013-03-01 21:11:00,
2013-03-01 15:15:00,32.2,19.9,30.14,North,359,14.0,19.0,60,0.00,,---,0.00,574.00,VWS V14.01,2013-03-01 21:15:00,
2013-03-01 15:16:00,31.6,19.3,30.13,SSE,158,20.0,21.0,60,0.00,,---,0.00,259.00,VWS V14.01,2013-03-01 21:16:00,
2013-03-01 15:20:00,32.5,20.2,30.14,NNW,332,11.0,18.0,60,0.00,,---,0.00,537.00,VWS V14.01,2013-03-01 21:20:00,
2013-03-01 15:21:00,31.6,19.3,30.13,East,79,14.0,18.0,60,0.00,,---,0.00,243.00,VWS V14.01,2013-03-01 21:21:00,
2013-03-01 15:25:00,32.5,19.4,30.14,North,0,13.0,19.0,58,0.00,,---,0.00,472.00,VWS V14.01,2013-03-01 21:25:00,
2013-03-01 15:26:00,31.3,19.0,30.13,ENE,75,17.0,20.0,60,0.00,,---,0.00,199.00,VWS V14.01,2013-03-01 21:26:00,
2013-03-01 15:30:00,32.5,19.8,30.14,North,0,13.0,21.0,59,0.00,,---,0.00,472.00,VWS V14.01,2013-03-01 21:30:00,
2013-03-01 15:31:00,31.2,19.0,30.13,ESE,116,16.0,18.0,60,0.00,,---,0.00,187.00,VWS V14.01,2013-03-01 21:31:00,
2013-03-01 15:35:00,32.8,19.7,30.14,North,359,16.0,20.0,58,0.00,,---,0.00,477.00,VWS V14.01,2013-03-01 21:35:00,
2013-03-01 15:36:00,31.0,18.8,30.13,North,349,19.0,21.0,60,0.00,,---,0.00,225.00,VWS V14.01,2013-03-01 21:36:00,
2013-03-01 15:40:00,32.5,19.4,30.14,North,353,14.0,18.0,58,0.00,,---,0.00,201.00,VWS V14.01,2013-03-01 21:40:00,
2013-03-01 15:41:00,31.0,19.1,30.13,North,1,17.0,19.0,61,0.00,,---,0.00,185.00,VWS V14.01,2013-03-01 21:41:00,
2013-03-01 15:45:00,31.9,19.2,30.14,North,0,12.0,18.0,59,0.00,,---,0.00,158.00,VWS V14.01,2013-03-01 21:45:00,
2013-03-01 15:47:00,30.7,18.9,30.14,North,359,19.0,19.0,61,0.00,,---,0.00,139.00,VWS V14.01,2013-03-01 21:47:00,
2013-03-01 15:50:00,31.5,18.8,30.14,North,0,10.0,16.0,59,0.00,,---,0.00,211.00,VWS V14.01,2013-03-01 21:50:00,
2013-03-01 15:52:00,31.0,19.1,30.14,NNW,335,15.0,18.0,61,0.00,,---,0.00,484.00,VWS V14.01,2013-03-01 21:52:00,
2013-03-01 15:55:00,31.3,18.6,30.14,North,357,12.0,17.0,59,0.00,,---,0.00,283.00,VWS V14.01,2013-03-01 21:55:00,
2013-03-01 15:57:00,31.5,19.2,30.14,North,357,10.0,19.0,60,0.00,,---,0.00,514.00,VWS V14.01,2013-03-01 21:57:00,
2013-03-01 16:00:00,31.5,18.8,30.14,North,0,13.0,16.0,59,0.00,,---,0.00,167.00,VWS V14.01,2013-03-01 22:00:00,
2013-03-01 16:02:00,32.1,19.4,30.13,North,0,19.0,22.0,59,0.00,,---,0.00,545.00,VWS V14.01,2013-03-01 22:02:00,
2013-03-01 16:05:00,31.2,19.0,30.14,North,0,12.0,18.0,60,0.00,,---,0.00,287.00,VWS V14.01,2013-03-01 22:05:00,
2013-03-01 16:07:00,31.6,18.5,30.13,North,0,18.0,20.0,58,0.00,,---,0.00,294.00,VWS V14.01,2013-03-01 22:07:00,
2013-03-01 16:10:00,31.6,18.9,30.14,North,356,15.0,18.0,59,0.00,,---,0.00,304.00,VWS V14.01,2013-03-01 22:10:00,
2013-03-01 16:12:00,32.1,20.2,30.13,North,0,16.0,16.0,61,0.00,,---,0.00,598.00,VWS V14.01,2013-03-01 22:12:00,
2013-03-01 16:15:00,31.5,19.2,30.15,SSE,151,8.0,17.0,60,0.00,,---,0.00,274.00,VWS V14.01,2013-03-01 22:15:00,
2013-03-01 16:17:00,32.7,20.4,30.14,NNW,342,10.0,18.0,60,0.00,,---,0.00,537.00,VWS V14.01,2013-03-01 22:17:00,
2013-03-01 16:20:00,30.9,19.0,30.15,ESE,112,11.0,17.0,61,0.00,,---,0.00,143.00,VWS V14.01,2013-03-01 22:20:00,
2013-03-01 16:22:00,32.5,19.4,30.14,North,0,17.0,19.0,58,0.00,,---,0.00,419.00,VWS V14.01,2013-03-01 22:22:00,
2013-03-01 16:25:00,30.4,19.0,30.15,South,188,11.0,15.0,62,0.00,,---,0.00,99.00,VWS V14.01,2013-03-01 22:25:00,
2013-03-01 16:27:00,32.4,19.7,30.14,NW,309,11.0,18.0,59,0.00,,---,0.00,484.00,VWS V14.01,2013-03-01 22:27:00,
2013-03-01 16:30:00,30.1,19.0,30.15,WNW,291,14.0,14.0,63,0.00,,---,0.00,88.00,VWS V14.01,2013-03-01 22:30:00,
2013-03-01 16:32:00,32.7,19.6,30.14,NW,326,15.0,20.0,58,0.00,,---,0.00,424.00,VWS V14.01,2013-03-01 22:32:00,
2013-03-01 16:35:00,30.0,19.0,30.15,North,0,11.0,15.0,63,0.00,,---,0.00,107.00,VWS V14.01,2013-03-01 22:35:00,
2013-03-01 16:37:00,32.8,19.7,30.14,North,0,12.0,18.0,58,0.00,,---,0.00,470.00,VWS V14.01,2013-03-01 22:37:00,
2013-03-01 16:40:00,30.0,19.3,30.15,ESE,104,9.0,11.0,64,0.00,,---,0.00,70.00,VWS V14.01,2013-03-01 22:40:00,
2013-03-01 16:42:00,31.9,19.2,30.14,North,359,8.0,18.0,59,0.00,,---,0.00,303.00,VWS V14.01,2013-03-01 22:42:00,
2013-03-01 16:45:00,29.8,19.1,30.16,North,0,10.0,12.0,64,0.00,,---,0.00,62.00,VWS V14.01,2013-03-01 22:45:00,
2013-03-01 16:48:00,31.6,18.9,30.14,North,359,10.0,16.0,59,0.00,,---,0.00,204.00,VWS V14.01,2013-03-01 22:48:00,
2013-03-01 16:50:00,29.5,18.8,30.16,North,0,8.0,13.0,64,0.00,,---,0.00,62.00,VWS V14.01,2013-03-01 22:50:00,
2013-03-01 16:53:00,31.5,18.8,30.14,North,357,16.0,17.0,59,0.00,,---,0.00,280.00,VWS V14.01,2013-03-01 22:53:00,
2013-03-01 16:55:00,29.7,19.4,30.16,NW,316,8.0,12.0,65,0.00,,---,0.00,76.00,VWS V14.01,2013-03-01 22:55:00,
2013-03-01 16:58:00,31.5,18.8,30.14,North,0,16.0,16.0,59,0.00,,---,0.00,167.00,VWS V14.01,2013-03-01 22:58:00,
2013-03-01 17:00:00,29.8,19.5,30.16,NW,311,7.0,12.0,65,0.00,,---,0.00,51.00,VWS V14.01,2013-03-01 23:00:00,
2013-03-01 17:03:00,31.0,18.4,30.14,NW,322,16.0,18.0,59,0.00,,---,0.00,139.00,VWS V14.01,2013-03-01 23:03:00,
2013-03-01 17:05:00,29.8,19.5,30.16,NW,326,9.0,10.0,65,0.00,,---,0.00,35.00,VWS V14.01,2013-03-01 23:05:00,
2013-03-01 17:08:00,31.6,19.3,30.14,North,0,11.0,18.0,60,0.00,,---,0.00,303.00,VWS V14.01,2013-03-01 23:08:00,
2013-03-01 17:10:00,29.8,19.5,30.16,West,271,7.0,12.0,65,0.00,,---,0.00,21.00,VWS V14.01,2013-03-01 23:10:00,
2013-03-01 17:13:00,31.5,19.2,30.15,NE,44,6.0,17.0,60,0.00,,---,0.00,273.00,VWS V14.01,2013-03-01 23:13:00,
2013-03-01 17:15:00,29.7,19.4,30.18,North,0,11.0,11.0,65,0.00,,---,0.00,12.00,VWS V14.01,2013-03-01 23:15:00,
2013-03-01 17:18:00,31.0,19.1,30.15,NNE,28,15.0,17.0,61,0.00,,---,0.00,239.00,VWS V14.01,2013-03-01 23:18:00,
2013-03-01 17:20:00,29.4,19.1,30.18,North,0,6.0,12.0,65,0.00,,---,0.00,11.00,VWS V14.01,2013-03-01 23:20:00,
2013-03-01 17:23:00,30.4,19.0,30.15,SSE,155,12.0,15.0,62,0.00,,---,0.00,102.00,VWS V14.01,2013-03-01 23:23:00,
2013-03-01 17:25:00,29.4,19.1,30.18,North,359,6.0,10.0,65,0.00,,---,0.00,0.00,VWS V14.01,2013-03-01 23:25:00,
2013-03-01 17:28:00,30.1,19.0,30.15,North,352,10.0,14.0,63,0.00,,---,0.00,88.00,VWS V14.01,2013-03-01 23:28:00,
2013-03-01 17:30:00,29.3,19.0,30.18,North,354,7.0,12.0,65,0.00,,---,0.00,0.00,VWS V14.01,2013-03-01 23:30:00,
2013-03-01 17:34:00,30.0,19.0,30.15,SW,217,10.0,15.0,63,0.00,,---,0.00,107.00,VWS V14.01,2013-03-01 23:34:00,
2013-03-01 17:35:00,29.3,19.4,30.18,North,359,6.0,11.0,66,0.00,,---,0.00,0.00,VWS V14.01,2013-03-01 23:35:00,
2013-03-01 17:39:00,30.0,19.3,30.15,East,79,9.0,11.0,64,0.00,,---,0.00,70.00,VWS V14.01,2013-03-01 23:39:00,
2013-03-01 17:40:00,29.3,19.4,30.18,North,4,7.0,11.0,66,0.00,,---,0.00,0.00,VWS V14.01,2013-03-01 23:40:00,
2013-03-01 17:44:00,29.8,19.1,30.16,North,0,10.0,12.0,64,0.00,,---,0.00,62.00,VWS V14.01,2013-03-01 23:44:00,
2013-03-01 17:45:00,29.1,19.5,30.18,ESE,121,5.0,8.0,67,0.00,,---,0.00,0.00,VWS V14.01,2013-03-01 23:45:00,
2013-03-01 17:49:00,29.5,18.8,30.16,North,0,8.0,13.0,64,0.00,,---,0.00,62.00,VWS V14.01,2013-03-01 23:49:00,
2013-03-01 17:50:00,29.0,19.4,30.18,ENE,68,7.0,10.0,67,0.00,,---,0.00,0.00,VWS V14.01,2013-03-01 23:50:00,
2013-03-01 17:54:00,29.7,19.4,30.16,NW,316,8.0,12.0,65,0.00,,---,0.00,76.00,VWS V14.01,2013-03-01 23:54:00,
2013-03-01 17:55:00,28.7,19.5,30.18,NE,40,5.0,10.0,68,0.00,,---,0.00,0.00,VWS V14.01,2013-03-01 23:55:00,
2013-03-01 17:59:00,29.8,19.5,30.16,NW,311,7.0,12.0,65,0.00,,---,0.00,51.00,VWS V14.01,2013-03-01 23:59:00,
2013-03-01 18:00:00,28.5,19.3,30.19,SSE,165,3.0,8.0,68,0.00,,---,0.00,0.00,VWS V14.01,2013-03-02 00:00:00,
2013-03-01 18:04:00,29.8,19.5,30.16,NW,326,9.0,10.0,65,0.00,,---,0.00,35.00,VWS V14.01,2013-03-02 00:04:00,
2013-03-01 18:05:00,28.5,19.6,30.19,North,352,8.0,10.0,69,0.00,,---,0.00,0.00,VWS V14.01,2013-03-02 00:05:00,
2013-03-01 18:09:00,29.8,19.5,30.16,West,271,7.0,12.0,65,0.00,,---,0.00,21.00,VWS V14.01,2013-03-02 00:09:00,
2013-03-01 18:10:00,28.4,19.5,30.19,NNW,346,7.0,10.0,69,0.00,,---,0.00,0.00,VWS V14.01,2013-03-02 00:10:00,
2013-03-01 18:14:00,29.7,19.4,30.18,North,0,11.0,11.0,65,0.00,,---,0.00,12.00,VWS V14.01,2013-03-02 00:14:00,
2013-03-01 18:15:00,28.4,19.5,30.19,North,11,7.0,11.0,69,0.00,,---,0.00,0.00,VWS V14.01,2013-03-02 00:15:00,
2013-03-01 18:19:00,29.4,19.1,30.18,North,0,6.0,12.0,65,0.00,,---,0.00,11.00,VWS V14.01,2013-03-02 00:19:00,
2013-03-01 18:20:00,28.2,19.4,30.19,NNE,23,5.0,8.0,69,0.00,,---,0.00,0.00,VWS V14.01,2013-03-02 00:20:00,
2013-03-01 18:24:00,29.4,19.1,30.18,North,359,6.0,10.0,65,0.00,,---,0.00,0.00,VWS V14.01,2013-03-02 00:24:00,
2013-03-01 18:25:00,28.1,19.3,30.19,ENE,71,6.0,8.0,69,0.00,,---,0.00,0.00,VWS V14.01,2013-03-02 00:25:00,
2013-03-01 18:29:00,29.3,19.0,30.18,North,356,6.0,12.0,65,0.00,,---,0.00,0.00,VWS V14.01,2013-03-02 00:29:00,
2013-03-01 18:30:00,27.9,19.1,30.19,ESE,116,5.0,7.0,69,0.00,,---,0.00,0.00,VWS V14.01,2013-03-02 00:30:00,
2013-03-01 18:34:00,29.3,19.4,30.18,North,359,6.0,11.0,66,0.00,,---,0.00,0.00,VWS V14.01,2013-03-02 00:34:00,
2013-03-01 18:35:00,27.8,19.3,30.19,NE,56,3.0,5.0,70,0.00,,---,0.00,0.00,VWS V14.01,2013-03-02 00:35:00,
2013-03-01 18:39:00,29.3,19.4,30.18,North,0,3.0,7.0,66,0.00,,---,0.00,0.00,VWS V14.01,2013-03-02 00:39:00,
2013-03-01 18:40:00,27.5,19.0,30.19,NE,47,2.0,5.0,70,0.00,,---,0.00,0.00,VWS V14.01,2013-03-02 00:40:00,
2013-03-01 18:44:00,29.1,19.5,30.18,East,79,6.0,6.0,67,0.00,,---,0.00,0.00,VWS V14.01,2013-03-02 00:44:00,
2013-03-01 18:45:00,27.3,19.1,30.20,ENE,59,1.0,4.0,71,0.00,,---,0.00,0.00,VWS V14.01,2013-03-02 00:45:00,
2013-03-01 18:49:00,29.0,19.4,30.18,South,181,7.0,7.0,67,0.00,,---,0.00,0.00,VWS V14.01,2013-03-02 00:49:00,
2013-03-01 18:50:00,27.0,18.9,30.20,ENE,72,2.0,4.0,71,0.00,,---,0.00,0.00,VWS V14.01,2013-03-02 00:50:00,
2013-03-01 18:54:00,28.7,19.5,30.18,SW,224,5.0,5.0,68,0.00,,---,0.00,0.00,VWS V14.01,2013-03-02 00:54:00,
2013-03-01 18:55:00,26.7,18.6,30.20,North,7,2.0,5.0,71,0.00,,---,0.00,0.00,VWS V14.01,2013-03-02 00:55:00,
2013-03-01 18:59:00,28.5,19.3,30.19,East,82,6.0,7.0,68,0.00,,---,0.00,0.00,VWS V14.01,2013-03-02 00:59:00,
2013-03-01 19:00:00,26.4,18.6,30.20,NNW,343,3.0,5.0,72,0.00,,---,0.00,0.00,VWS V14.01,2013-03-02 01:00:00,
2013-03-01 19:04:00,28.5,19.6,30.19,North,0,7.0,9.0,69,0.00,,---,0.00,0.00,VWS V14.01,2013-03-02 01:04:00,
2013-03-01 19:05:00,26.3,18.5,30.20,NNW,339,4.0,5.0,72,0.00,,---,0.00,0.00,VWS V14.01,2013-03-02 01:05:00,
2013-03-01 19:10:00,28.4,19.5,30.19,WSW,251,7.0,7.0,69,0.00,,---,0.00,0.00,VWS V14.01,2013-03-02 01:10:00,
2013-03-01 19:15:00,28.4,19.5,30.19,NNE,18,8.0,8.0,69,0.00,,---,0.00,0.00,VWS V14.01,2013-03-02 01:15:00,
2013-03-01 19:20:00,28.2,19.4,30.19,ENE,68,6.0,6.0,69,0.00,,---,0.00,0.00,VWS V14.01,2013-03-02 01:20:00,
2013-03-01 19:25:00,28.1,19.3,30.19,NNE,16,5.0,6.0,69,0.00,,---,0.00,0.00,VWS V14.01,2013-03-02 01:25:00,
2013-03-01 19:30:00,27.9,19.1,30.19,East,92,3.0,5.0,69,0.00,,---,0.00,0.00,VWS V14.01,2013-03-02 01:30:00,
2013-03-01 19:35:00,27.6,19.1,30.19,NE,54,3.0,5.0,70,0.00,,---,0.00,0.00,VWS V14.01,2013-03-02 01:35:00,
2013-03-01 19:40:00,27.5,19.0,30.19,NE,47,2.0,3.0,70,0.00,,---,0.00,0.00,VWS V14.01,2013-03-02 01:40:00,
2013-03-01 19:45:00,27.2,19.1,30.20,WSW,243,3.0,3.0,71,0.00,,---,0.00,0.00,VWS V14.01,2013-03-02 01:45:00,
2013-03-01 19:50:00,27.0,18.9,30.20,NE,37,1.0,5.0,71,0.00,,---,0.00,0.00,VWS V14.01,2013-03-02 01:50:00,
2013-03-01 19:55:00,26.7,18.6,30.20,NE,52,4.0,4.0,71,0.00,,---,0.00,0.00,VWS V14.01,2013-03-02 01:55:00,
2013-03-01 20:00:00,24.7,17.6,30.20,North,0,7.0,7.0,74,0.00,,---,0.00,0.00,VWS V14.01,2013-03-02 02:00:00,
2013-03-01 20:01:00,26.4,18.6,30.20,North,0,3.0,5.0,72,0.00,,---,0.00,0.00,VWS V14.01,2013-03-02 02:01:00,
2013-03-01 20:05:00,24.7,17.6,30.20,North,0,6.0,9.0,74,0.00,,---,0.00,0.00,VWS V14.01,2013-03-02 02:05:00,
2013-03-01 20:06:00,26.1,18.3,30.20,North,0,4.0,5.0,72,0.00,,---,0.00,0.00,VWS V14.01,2013-03-02 02:06:00,
2013-03-01 20:10:00,24.7,17.6,30.20,NNW,339,6.0,8.0,74,0.00,,---,0.00,0.00,VWS V14.01,2013-03-02 02:10:00,
2013-03-01 20:11:00,25.8,18.0,30.20,North,0,3.0,3.0,72,0.00,,---,0.00,0.00,VWS V14.01,2013-03-02 02:11:00,
2013-03-01 20:15:00,24.5,17.4,30.20,NNW,336,5.0,8.0,74,0.00,,---,0.00,0.00,VWS V14.01,2013-03-02 02:15:00,
2013-03-01 20:16:00,25.6,17.8,30.20,NW,315,5.0,5.0,72,0.00,,---,0.00,0.00,VWS V14.01,2013-03-02 02:16:00,
2013-03-01 20:20:00,24.5,17.4,30.20,North,356,7.0,10.0,74,0.00,,---,0.00,0.00,VWS V14.01,2013-03-02 02:20:00,
2013-03-01 20:21:00,25.4,17.6,30.20,North,0,3.0,7.0,72,0.00,,---,0.00,0.00,VWS V14.01,2013-03-02 02:21:00,
2013-03-01 20:25:00,24.5,17.4,30.20,North,0,6.0,9.0,74,0.00,,---,0.00,0.00,VWS V14.01,2013-03-02 02:25:00,
2013-03-01 20:26:00,25.3,17.5,30.20,North,0,3.0,5.0,72,0.00,,---,0.00,0.00,VWS V14.01,2013-03-02 02:26:00,
2013-03-01 20:30:00,24.5,17.4,30.20,North,0,6.0,10.0,74,0.00,,---,0.00,0.00,VWS V14.01,2013-03-02 02:30:00,
2013-03-01 20:31:00,25.1,17.4,30.20,North,0,3.0,5.0,72,0.00,,---,0.00,0.00,VWS V14.01,2013-03-02 02:31:00,
2013-03-01 20:35:00,24.5,17.4,30.20,North,357,6.0,11.0,74,0.00,,---,0.00,0.00,VWS V14.01,2013-03-02 02:35:00,
2013-03-01 20:36:00,25.0,17.6,30.20,North,0,6.0,6.0,73,0.00,,---,0.00,0.00,VWS V14.01,2013-03-02 02:36:00,
2013-03-01 20:40:00,24.5,17.4,30.20,NNW,346,6.0,10.0,74,0.00,,---,0.00,0.00,VWS V14.01,2013-03-02 02:40:00,
2013-03-01 20:41:00,25.0,17.6,30.20,NNW,336,4.0,6.0,73,0.00,,---,0.00,0.00,VWS V14.01,2013-03-02 02:41:00,
2013-03-01 20:45:00,24.5,17.4,30.21,North,0,6.0,11.0,74,0.00,,---,0.00,0.00,VWS V14.01,2013-03-02 02:45:00,
2013-03-01 20:47:00,24.8,17.4,30.20,North,0,3.0,6.0,73,0.00,,---,0.00,0.00,VWS V14.01,2013-03-02 02:47:00,
2013-03-01 20:50:00,24.4,17.3,30.21,North,0,6.0,10.0,74,0.00,,---,0.00,0.00,VWS V14.01,2013-03-02 02:50:00,
2013-03-01 20:52:00,24.8,17.4,30.20,North,354,7.0,7.0,73,0.00,,---,0.00,0.00,VWS V14.01,2013-03-02 02:52:00,
2013-03-01 20:55:00,24.4,17.3,30.21,NW,319,7.0,8.0,74,0.00,,---,0.00,0.00,VWS V14.01,2013-03-02 02:55:00,
2013-03-01 20:57:00,24.7,17.6,30.20,NNW,330,4.0,6.0,74,0.00,,---,0.00,0.00,VWS V14.01,2013-03-02 02:57:00,
2013-03-01 21:00:00,24.2,17.4,30.21,NNW,347,6.0,8.0,75,0.00,,---,0.00,0.00,VWS V14.01,2013-03-02 03:00:00,
2013-03-01 21:02:00,24.7,17.6,30.20,NNW,328,6.0,9.0,74,0.00,,---,0.00,0.00,VWS V14.01,2013-03-02 03:02:00,
2013-03-01 21:05:00,24.2,17.4,30.21,North,352,7.0,9.0,75,0.00,,---,0.00,0.00,VWS V14.01,2013-03-02 03:05:00,
2013-03-01 21:07:00,24.7,17.6,30.20,North,0,5.0,6.0,74,0.00,,---,0.00,0.00,VWS V14.01,2013-03-02 03:07:00,
2013-03-01 21:10:00,24.2,17.4,30.21,NNW,328,5.0,8.0,75,0.00,,---,0.00,0.00,VWS V14.01,2013-03-02 03:10:00,
2013-03-01 21:12:00,24.7,17.6,30.20,North,0,7.0,8.0,74,0.00,,---,0.00,0.00,VWS V14.01,2013-03-02 03:12:00,
2013-03-01 21:15:00,24.2,17.4,30.21,NW,322,3.0,8.0,75,0.00,,---,0.00,0.00,VWS V14.01,2013-03-02 03:15:00,
2013-03-01 21:17:00,24.5,17.4,30.20,North,0,5.0,8.0,74,0.00,,---,0.00,0.00,VWS V14.01,2013-03-02 03:17:00,
2013-03-01 21:20:00,24.1,17.3,30.21,NW,323,3.0,8.0,75,0.00,,---,0.00,0.00,VWS V14.01,2013-03-02 03:20:00,
2013-03-01 21:22:00,24.5,17.4,30.20,North,0,6.0,9.0,74,0.00,,---,0.00,0.00,VWS V14.01,2013-03-02 03:22:00,
2013-03-01 21:25:00,24.1,17.3,30.21,NW,315,3.0,8.0,75,0.00,,---,0.00,0.00,VWS V14.01,2013-03-02 03:25:00,
2013-03-01 21:27:00,24.5,17.4,30.20,North,357,6.0,10.0,74,0.00,,---,0.00,0.00,VWS V14.01,2013-03-02 03:27:00,
2013-03-01 21:30:00,23.9,17.1,30.21,North,359,7.0,7.0,75,0.00,,---,0.00,0.00,VWS V14.01,2013-03-02 03:30:00,
2013-03-01 21:32:00,24.5,17.4,30.20,North,0,7.0,10.0,74,0.00,,---,0.00,0.00,VWS V14.01,2013-03-02 03:32:00,
2013-03-01 21:35:00,23.9,17.1,30.21,North,353,5.0,8.0,75,0.00,,---,0.00,0.00,VWS V14.01,2013-03-02 03:35:00,
2013-03-01 21:38:00,24.5,17.4,30.20,ESE,107,6.0,8.0,74,0.00,,---,0.00,0.00,VWS V14.01,2013-03-02 03:38:00,
2013-03-01 21:40:00,23.9,17.1,30.21,NW,322,4.0,7.0,75,0.00,,---,0.00,0.00,VWS V14.01,2013-03-02 03:40:00,
2013-03-01 21:43:00,24.5,17.4,30.20,North,354,7.0,11.0,74,0.00,,---,0.00,0.00,VWS V14.01,2013-03-02 03:43:00,
2013-03-01 21:45:00,23.8,17.0,30.21,North,0,5.0,7.0,75,0.00,,---,0.00,0.00,VWS V14.01,2013-03-02 03:45:00,
2013-03-01 21:48:00,24.4,17.3,30.21,NNW,347,6.0,10.0,74,0.00,,---,0.00,0.00,VWS V14.01,2013-03-02 03:48:00,
2013-03-01 21:50:00,23.8,17.0,30.21,NNW,343,4.0,10.0,75,0.00,,---,0.00,0.00,VWS V14.01,2013-03-02 03:50:00,
2013-03-01 21:53:00,24.4,17.3,30.21,North,0,6.0,8.0,74,0.00,,---,0.00,0.00,VWS V14.01,2013-03-02 03:53:00,
2013-03-01 21:55:00,23.8,17.0,30.21,NNW,328,6.0,8.0,75,0.00,,---,0.00,0.00,VWS V14.01,2013-03-02 03:55:00,
2013-03-01 21:58:00,24.2,17.4,30.21,North,0,4.0,8.0,75,0.00,,---,0.00,0.00,VWS V14.01,2013-03-02 03:58:00,
2013-03-01 22:00:00,23.8,17.0,30.21,North,0,5.0,7.0,75,0.00,,---,0.00,0.00,VWS V14.01,2013-03-02 04:00:00,
2013-03-01 22:03:00,24.2,17.4,30.21,North,350,6.0,9.0,75,0.00,,---,0.00,0.00,VWS V14.01,2013-03-02 04:03:00,
2013-03-01 22:05:00,23.8,17.0,30.21,NW,326,6.0,8.0,75,0.00,,---,0.00,0.00,VWS V14.01,2013-03-02 04:05:00,
2013-03-01 22:08:00,24.2,17.4,30.21,NNW,330,5.0,8.0,75,0.00,,---,0.00,0.00,VWS V14.01,2013-03-02 04:08:00,
2013-03-01 22:10:00,23.8,17.0,30.21,NNW,330,6.0,8.0,75,0.00,,---,0.00,0.00,VWS V14.01,2013-03-02 04:10:00,
2013-03-01 22:13:00,24.2,17.4,30.21,North,353,4.0,7.0,75,0.00,,---,0.00,0.00,VWS V14.01,2013-03-02 04:13:00,
2013-03-01 22:15:00,23.8,17.0,30.21,NW,322,3.0,10.0,75,0.00,,---,0.00,0.00,VWS V14.01,2013-03-02 04:15:00,
2013-03-01 22:19:00,24.1,17.3,30.21,NNW,335,6.0,8.0,75,0.00,,---,0.00,0.00,VWS V14.01,2013-03-02 04:19:00,
2013-03-01 22:20:00,23.6,16.9,30.21,NW,320,4.0,7.0,75,0.00,,---,0.00,0.00,VWS V14.01,2013-03-02 04:20:00,
2013-03-01 22:23:00,24.1,17.3,30.21,SSW,212,6.0,8.0,75,0.00,,---,0.00,0.00,VWS V14.01,2013-03-02 04:23:00,
2013-03-01 22:25:00,23.5,16.8,30.21,NW,312,6.0,7.0,75,0.00,,---,0.00,0.00,VWS V14.01,2013-03-02 04:25:00,
2013-03-01 22:29:00,23.9,17.1,30.21,NW,320,6.0,7.0,75,0.00,,---,0.00,0.00,VWS V14.01,2013-03-02 04:29:00,
2013-03-01 22:30:00,23.2,16.5,30.22,WNW,299,5.0,6.0,75,0.00,,---,0.00,0.00,VWS V14.01,2013-03-02 04:30:00,
2013-03-01 22:34:00,23.9,17.1,30.21,NNW,336,3.0,8.0,75,0.00,,---,0.00,0.00,VWS V14.01,2013-03-02 04:34:00,
2013-03-01 22:35:00,23.0,16.3,30.22,WNW,292,4.0,6.0,75,0.00,,---,0.00,0.00,VWS V14.01,2013-03-02 04:35:00,
2013-03-01 22:39:00,23.9,17.1,30.21,NW,322,4.0,7.0,75,0.00,,---,0.00,0.00,VWS V14.01,2013-03-02 04:39:00,
2013-03-01 22:40:00,22.7,16.3,30.22,NNW,346,6.0,6.0,76,0.00,,---,0.00,0.00,VWS V14.01,2013-03-02 04:40:00,
2013-03-01 22:44:00,23.8,17.0,30.21,North,0,5.0,7.0,75,0.00,,---,0.00,0.00,VWS V14.01,2013-03-02 04:44:00,
2013-03-01 22:45:00,22.7,16.3,30.21,NW,323,3.0,6.0,76,0.00,,---,0.00,0.00,VWS V14.01,2013-03-02 04:45:00,
2013-03-01 22:49:00,23.8,17.0,30.21,North,353,4.0,6.0,75,0.00,,---,0.00,0.00,VWS V14.01,2013-03-02 04:49:00,
2013-03-01 22:50:00,22.7,16.6,30.21,NNW,343,5.0,5.0,77,0.00,,---,0.00,0.00,VWS V14.01,2013-03-02 04:50:00,
2013-03-01 22:54:00,23.8,17.0,30.21,NW,326,5.0,6.0,75,0.00,,---,0.00,0.00,VWS V14.01,2013-03-02 04:54:00,
2013-03-01 22:55:00,22.7,16.6,30.21,NNW,328,6.0,6.0,77,0.00,,---,0.00,0.00,VWS V14.01,2013-03-02 04:55:00,
2013-03-01 22:59:00,23.8,17.0,30.21,NNW,330,5.0,5.0,75,0.00,,---,0.00,0.00,VWS V14.01,2013-03-02 04:59:00,
2013-03-01 23:00:00,23.8,17.0,30.21,North,352,7.0,8.0,75,0.00,,---,0.00,0.00,VWS V14.01,2013-03-02 05:00:00,
2013-03-01 23:01:00,23.8,17.0,30.21,North,356,6.0,8.0,75,0.00,,---,0.00,0.00,VWS V14.01,2013-03-02 05:01:00,
2013-03-01 23:02:00,23.8,17.0,30.21,North,350,6.0,8.0,75,0.00,,---,0.00,0.00,VWS V14.01,2013-03-02 05:02:00,
2013-03-01 23:05:00,22.1,15.7,30.21,WNW,298,2.0,3.0,76,0.00,,---,0.00,0.00,VWS V14.01,2013-03-02 05:05:00,
2013-03-01 23:07:00,23.8,17.0,30.21,NNW,335,7.0,7.0,75,0.00,,---,0.00,0.00,VWS V14.01,2013-03-02 05:07:00,
2013-03-01 23:10:00,21.6,15.5,30.21,WNW,298,3.0,5.0,77,0.00,,---,0.00,0.00,VWS V14.01,2013-03-02 05:10:00,
2013-03-01 23:12:00,23.8,17.0,30.21,North,353,6.0,10.0,75,0.00,,---,0.00,0.00,VWS V14.01,2013-03-02 05:12:00,
2013-03-01 23:15:00,21.4,15.6,30.22,NNW,329,5.0,5.0,78,0.00,,---,0.00,0.00,VWS V14.01,2013-03-02 05:15:00,
2013-03-01 23:17:00,23.6,16.9,30.21,NNW,329,5.0,7.0,75,0.00,,---,0.00,0.00,VWS V14.01,2013-03-02 05:17:00,
2013-03-01 23:20:00,21.4,15.6,30.22,NNW,332,5.0,6.0,78,0.00,,---,0.00,0.00,VWS V14.01,2013-03-02 05:20:00,
2013-03-01 23:22:00,23.5,16.8,30.21,WNW,295,5.0,7.0,75,0.00,,---,0.00,0.00,VWS V14.01,2013-03-02 05:22:00,
2013-03-01 23:25:00,21.3,15.8,30.22,North,0,3.0,5.0,79,0.00,,---,0.00,0.00,VWS V14.01,2013-03-02 05:25:00,
2013-03-01 23:27:00,23.3,16.6,30.21,WNW,292,5.0,6.0,75,0.00,,---,0.00,0.00,VWS V14.01,2013-03-02 05:27:00,
2013-03-01 23:30:00,21.1,15.6,30.22,NW,306,3.0,5.0,79,0.00,,---,0.00,0.00,VWS V14.01,2013-03-02 05:30:00,
2013-03-01 23:33:00,23.0,16.3,30.22,WNW,295,5.0,6.0,75,0.00,,---,0.00,0.00,VWS V14.01,2013-03-02 05:33:00,
2013-03-01 23:35:00,20.8,15.3,30.22,WNW,294,2.0,5.0,79,0.00,,---,0.00,0.00,VWS V14.01,2013-03-02 05:35:00,
2013-03-01 23:38:00,22.7,16.3,30.22,WNW,296,3.0,5.0,76,0.00,,---,0.00,0.00,VWS V14.01,2013-03-02 05:38:00,
2013-03-01 23:40:00,20.6,15.4,30.22,NW,311,3.0,5.0,80,0.00,,---,0.00,0.00,VWS V14.01,2013-03-02 05:40:00,
2013-03-01 23:43:00,22.7,16.3,30.22,NNW,344,4.0,6.0,76,0.00,,---,0.00,0.00,VWS V14.01,2013-03-02 05:43:00,
2013-03-01 23:45:00,20.6,15.4,30.22,NNW,328,3.0,5.0,80,0.00,,---,0.00,0.00,VWS V14.01,2013-03-02 05:45:00,
2013-03-01 23:48:00,22.7,16.6,30.21,NW,323,3.0,5.0,77,0.00,,---,0.00,0.00,VWS V14.01,2013-03-02 05:48:00,
2013-03-01 23:50:00,20.6,15.4,30.22,NW,322,2.0,5.0,80,0.00,,---,0.00,0.00,VWS V14.01,2013-03-02 05:50:00,
2013-03-01 23:53:00,22.7,16.6,30.21,NW,309,4.0,5.0,77,0.00,,---,0.00,0.00,VWS V14.01,2013-03-02 05:53:00,
2013-03-01 23:55:00,20.6,15.7,30.22,NNW,343,3.0,5.0,81,0.00,,---,0.00,0.00,VWS V14.01,2013-03-02 05:55:00,
2013-03-01 23:58:00,22.7,16.6,30.21,WNW,298,3.0,6.0,77,0.00,,---,0.00,0.00,VWS V14.01,2013-03-02 05:58:00,